www.pogodaiklimat.ru

Погода и климат >> Архив погоды >> Пакистан >> Sargodha


ПОГОДА в Sargodha

  • Прогноз погоды в Sargodha
  • Монитор погоды в Sargodha
  • Климат города

АРХИВ ПОГОДЫ в Sargodha

Время (UTC), дата Ветер
(напр.,м/с)
 
Видим.   Явления Облачность Т
(С)
Тd
(С)
f
(%)
Тe
(С)
Тes
(С)
Комфортность P
(гПа)
Po
(гПа)
Тmin
(С)
Tmax
(С)
R
(мм)
R24
(мм)
S
(см)
15 11.09 ЮВ 4 н/о мгла 1/1 1000 м
[Sc diur, vesp]
+32.5 +23.8 60 +44 +44 опасность
перегрева
1002.8 982.5
18 11.09 ЮВ 3 н/о мгла ясно +30.0 +24.3 72 +42 +42 опасность
перегрева
1003.9 983.3
21 11.09 В 1 <100 м мгла ясно +28.5 +24.8 80 +41 +41 опасность
перегрева
1002.9 982.2
00 12.09 ЮВ 2 н/о мгла ясно +27.5 +24.4 83 +39 +39 очень
душно
1002.5 981.8
03 12.09 Ю 1 4000 м мгла ясно +30.5 +25.4 74 +44 +49 опасность
перегрева
1003.4 982.8 +27.1
06 12.09 ЮЗ 3 4000 м мгла ясно +35.0 +24.5 55 +48 +60 опасность
перегрева
1002.4 982.3
12 12.09 Ю 6 4000 м мгла ясно +36.5 +22.7 45 +46 +46 опасность
перегрева
998.4 978.4 +38.5
15 12.09 Ю 3 <100 м мгла ясно +32.0 +23.4 60 +43 +43 опасность
перегрева
1000.0 979.7
18 12.09 Ю 3 <100 м мгла ясно +29.0 +23.2 71 +39 +39 очень
душно
1000.5 979.9
21 12.09 Ю 2 <100 м мгла ясно +28.0 +23.7 77 +38 +38 очень
душно
1000.2 979.5
00 13.09 В 3 н/о мгла ясно +27.0 +23.4 81 +37 +37 очень
душно
1000.7 979.9
03 13.09 Ю 3 4000 м мгла ясно +29.0 +23.2 71 +39 +42 очень
душно
1001.9 981.3 +26.0
06 13.09 Ю 2 4000 м мгла ясно +34.0 +24.9 59 +47 +62 опасность
перегрева
1002.5 982.2
09 13.09 ЮВ 6 4000 м мгла 3/3 1000 м
[Sc diur, vesp]
+36.0 +23.2 48 +46 +50 опасность
перегрева
1000.5 980.5
12 13.09 Ю 4 4000 м мгла 4/1 1000 м
[Sc diur, vesp Ci fib]
+35.5 +23.2 49 +46 +47 опасность
перегрева
999.7 979.5 +37.5
18 13.09 ЮВ 5 н/о зарница 6/6 1000 м
[Cb calv]
+28.5 +24.0 77 +40 +40 очень
душно
1002.3 981.6
00 14.09 В 9 н/о мгла 3/3 1000 м
[Sc]
+25.0 +18.8 68 +30 +30 душно 1003.7 982.8
03 14.09 В 5 4000 м мгла 1/0
[Ac trans]
+27.0 +18.5 60 +32 +34 очень
душно
1005.7 984.8 +24.0
06 14.09 В 2 10 км 1/1 1000 м
[Sc diur, vesp]
+32.0 +20.0 49 +38 +53 опасность
солнечного
удара
1006.5 986.1
09 14.09 Ю 2 4000 м мгла 5/4 1000 м
[Sc diur, vesp Ac trans]
+34.0 +20.7 46 +41 +48 опасность
перегрева
1005.1 984.8
12 14.09 В 3 4000 м мгла 8/4 1000 м
[Sc diur, vesp Ac trans]
+33.0 +22.1 53 +42 +42 опасность
перегрева
1004.4 984.0 +34.5
15 14.09 ЮВ 5 н/о мгла 8/4 1000 м
[Sc diur, vesp Ac trans]
+30.0 +23.5 68 +41 +41 опасность
перегрева
1005.6 985.0
21 14.09 СВ 12 н/о гроза без осадков 9/5 1000 м
[Cb cap Ac trans]
+23.5 +16.7 66 +27 +27 душно 1007.2 986.0
00 15.09 СЗ 7 1000 м гроза, ливневой дождь 9/6 600 м
[Cb cap Ac As]
+19.0 +18.4 96 +20 +20 1008.8 987.4 12
03 15.09 СВ 3 4000 м мгла {гроза, дождь} 5/3 1000 м
[Sc diur, vesp Ac trans]
+24.0 +18.5 71 +28 +30 душно 1009.0 987.8 +19.5 10
06 15.09 С 2 10 км 5/5 1000 м
[Sc diur, vesp]
+28.0 +19.0 58 +33 +41 очень
душно
1010.7 989.8
12 15.09 СВ 2 10 км мгла 9/6 1000 м
[Sc diur, vesp Ac trans]
+20.0 +19.4 96 +24 +25 комфорт 1008.0 987.4 +31.5
15 15.09 штиль 0 <100 м мгла 3/0
[Ac trans]
+27.0 +20.2 66 +33 +33 очень
душно
1008.9 988.0
18 15.09 СЗ 2 н/о мгла 4/1 1000 м
[Sc diur, vesp Ac trans]
+25.5 +22.0 81 +33 +33 очень
душно
1009.2 988.1
21 15.09 СЗ 2 н/о мгла 4/1 1000 м
[Sc diur, vesp Ac trans]
+24.5 +21.3 82 +31 +31 очень
душно
1007.9 986.8
00 16.09 СЗ 2 н/о мгла 3/1 1000 м
[Sc Ac trans]
+23.0 +18.3 75 +29 +29 очень
душно
1007.8 986.6
03 16.09 С 2 10 км ясно +25.0 +17.0 61 +29 +32 душно 1008.9 987.8 +22.0
06 16.09 С 1 10 км ясно +31.0 +15.9 40 +34 +51 опасность
солнечного
удара
1008.4 987.8
09 16.09 ЮЗ 2 10 км ясно +32.0 +17.2 41 +36 +48 очень
душно
1006.5 986.1
12 16.09 СЗ 2 10 км ясно +32.0 +17.2 41 +36 +37 очень
душно
1005.3 984.9 +33.5
15 16.09 ЮЗ 1 <100 м мгла ясно +27.5 +18.8 59 +33 +33 очень
душно
1006.0 985.2
18 16.09 З 1 <100 м мгла 1/0
[Ac trans]
+26.0 +19.1 66 +31 +31 очень
душно
1006.3 985.4
21 16.09 штиль 0 <100 м мгла 1/0
[Ac trans]
+24.0 +19.4 75 +29 +29 душно 1005.0 984.8
00 17.09 штиль 0 н/о мгла ясно +22.5 +19.1 81 +28 +28 душно 1005.9 984.7
03 17.09 штиль 0 2000 м мгла 1/1 1000 м
[Sc diur, vesp]
+28.0 +19.6 60 +34 +38 очень
душно
1007.1 986.3 +22.0
06 17.09 З 2 10 км ясно +33.0 +19.5 45 +39 +54 опасность
солнечного
удара
1006.8 986.4
09 17.09 З 5 10 км 1/1 1000 м
[]
+35.0 +17.3 35 +38 +44 очень
душно
1005.0 984.8
12 17.09 ЮЗ 3 10 км 1/1 1000 м
[]
+34.0 +16.9 36 +37 +38 очень
душно
1004.1 983.8 +35.5
15 17.09 штиль 0 н/о мгла ясно +28.0 +16.9 51 +32 +32 душно 1005.0 984.2
18 17.09 ЮЗ 2 н/о мгла ясно +26.0 +19.9 69 +32 +32 очень
душно
1005.6 984.7
21 17.09 штиль 0 <100 м мгла ясно +25.0 +19.6 72 +30 +30 душно 1005.5 984.0
00 18.09 штиль 0 <100 м мгла ясно +24.0 +20.2 79 +30 +30 очень
душно
1005.3 984.2
03 18.09 штиль 0 2000 м мгла ясно +28.0 +21.3 67 +35 +40 очень
душно
1006.7 985.9 +23.1
06 18.09 Ю 2 4000 м мгла 1/0
[Ac trans]
+33.5 +22.5 53 +43 +58 опасность
перегрева
1006.7 986.4
09 18.09 З 2 4000 м мгла 1/1 1000 м
[Sc diur, vesp]
+35.5 +18.7 37 +40 +51 опасность
солнечного
удара
1004.3 984.2
12 18.09 З 3 4000 м мгла 1/0
[Ac trans]
+35.5 +14.4 28 +36 +38 очень
жарко
1003.1 983.0 +36.5

 

Местоположение метеостанции Sargodha (Пакистан): широта 32.05 долгота 72.67 высота над уровнем моря 188 м.

В архиве по умолчанию представлена погода в Sargodha за последнюю неделю. Архивные данные за месяц целиком и за предыдущие месяцы, начиная с января 2011 года, Вы можете получить, выбрав интересующий диапазон дат из раскрывающегося списка и нажав кнопку "Ввод!".


*Определитесь, кто Вы:
робот инопланетянин человек

Внимание! Время в таблицах - всемирное. Для получения местного времени необходимо прибавить поправку, которая в Sargodha равна 5 ч.

Смотрите также архив погоды в соседних городах и на ближайших метеорологических станциях:

Погода в Faisal Abad (Пакистан) (80 км)
Погода в Mianwali (Пакистан) (122 км)
Погода в Jhelum (Пакистан) (139 км)
Погода в Raifiqui Airbase (Пакистан) (148 км)
Погода в Lahore City (Пакистан) (166 км)
Погода в Dera Ismail Khan (Пакистан) (167 км)
Погода в Islamabad (Пакистан) (179 км)
Погода в Sialkot (Пакистан) (182 км)
Погода в Kohat (Пакистан) (205 км)
Погода в Amritsar (Punjab, Индия) (213 км)

Пояснения к столбцам:

Ветер - указаны скорость ветра в м/с - средняя за 10 мин, порывы в срок и между сроками (в фигурных скобках) и направление, откуда дует ветер: С - северный, СВ - северо-восточный, В - восточный, ЮВ - юго-восточный, Ю - южный, ЮЗ - юго-западный, З - западный, СЗ - северо-западный.
Видимость - горизонтальная дальность видимости в метрах или километрах. При видимости от 1 до 10 км при отсутствии осадков обычно наблюдается дымка, при ухудшении видимости до 1 км и менее - туман. В сухую погоду видимость может ухудшаться дымом, пылью или мглою.
Явления - указаны атмосферные явления, наблюдавшиеся в срок или в последний час перед сроком; фигурными скобками обозначены явления, наблюдавшиеся между сроками (за 1-3 часа до срока); квадратными скобками обозначены град или гололедные отложения с указанием их диаметра в мм.
Облачность - указаны через наклонную черту общая и нижняя облачность в баллах и высота нижней границы облаков в метрах; квадратными скобками обозначены формы облаков: Ci - перистые, Cs - перисто-слоистые, Cc - перисто-кучевые, Ac - высококучевые, As - высокослоистые, Sc - слоисто-кучевые, Ns - слоисто-дождевые, Cu - кучевые, Cb - кучево-дождевые. Подробнее классификацию облаков см. в Атласе облаков (PDF).
T - Температура воздуха - температура, измеренная на высоте 2 м над землей.
Td - Температура точки росы - температура, при понижении до которой содержащийся в воздухе водяной пар достигнет насыщения.
f - Относительная влажность воздуха - влажноcть воздуха, измеренная на высоте 2 м над землей.
Te - Эффективная температура - температура, которую ощущает одетый по сезону человек в тени. Характеристика душности погоды. При расчете учитывается влияние влажности воздуха и скорости ветра на теплоощущения человека.
Tes - Эффективная температура на солнце - температура, которую ощущает человек, с поправкой на солнечный нагрев. Характеристика знойности погоды. Зависит от высоты солнца над горизонтом, облачности и скорости ветра. Ночью, в пасмурную погоду, а также при ветре 12 м/с и более поправка равна нулю.
P - Атмосферное давление - приведенное к уровню моря атмосферное давление.
Po - Атмосферное давление - измеренное на уровне метеостанции атмосферное давление.
Tmin - Минимальная температура - минимум температуры воздуха на высоте 2 м над землей.
Tmax - Максимальная температура - максимум температуры воздуха на высоте 2 м над землей.
R - Количество осадков - Количество выпавших осадков за период времени, мм. При наведении курсора мыши на число - период времени, за который выпало указанное количество осадков.
R24 - Количество осадков - Количество выпавших осадков за 24 часа, мм.
S - Снежный покров - Высота снежного покрова, см. При наведении курсора мыши на число - состояние снежного покрова и степень покрытия местности в баллах.